metlocid,date_time,avg_rh,stddev_rh,min_rh,max_rh,n_rh,n_comments
FLMM,1/8/11,30.66923079,0.493700859,29.9,31.6,52,52
FLMM,1/9/11,29.83749996,0.549880317,29,31.2,96,96
FLMM,1/10/11,29.75833344,1.035848597,28.2,31.8,96,96
FLMM,1/11/11,30.00520823,0.796356234,28.8,31.7,96,96
FLMM,1/12/11,29.0979167,0.618823806,27.5,30.2,96,96
FLMM,1/13/11,29.05520831,1.254706464,27.1,30.8,96,96
FLMM,1/14/11,29.99479163,0.723786677,29.1,31.3,96,96
FLMM,1/15/11,30.08854169,1.145046104,28.1,32.1,96,96
FLMM,1/16/11,31.00625006,0.486190929,30.1,31.8,96,96
FLMM,1/17/11,32.35625001,1.670159907,29.9,34.9,96,96
FLMM,1/18/11,33.62604157,0.823119257,32.2,35.6,96,96
FLMM,1/19/11,32.08749966,0.546808928,30.7,33.4,96,96
FLMM,1/20/11,30.55729165,0.613144512,29.6,32.8,96,96
FLMM,1/21/11,29.89062484,0.8077361,28.5,32,96,96
FLMM,1/22/11,30.79791665,1.261325898,27.9,32.8,96,96
FLMM,1/23/11,27.98125007,0.589792703,26.7,29.1,96,96
FLMM,1/24/11,28.07083333,1.291585502,23.8,30.5,96,96
FLMM,1/25/11,29.53020841,1.150571491,27.4,31.5,96,96
FLMM,1/26/11,28.62916658,1.154571426,27.3,31.2,96,96
FLMM,1/27/11,27.30208337,0.505127276,25.7,28.3,96,96
FLMM,1/28/11,26.38124992,1.124213234,24.9,29.3,96,96
FLMM,1/29/11,28.21458332,1.085694494,25.5,29.4,96,96
FLMM,1/30/11,25.83124989,1.083008792,24.6,29.7,96,96
FLMM,1/31/11,25.725,0.689622312,24.4,27,96,96
FLMM,2/1/11,26.84583322,2.1215644,23.6,30.7,96,96
FLMM,2/2/11,28.90937499,0.649060614,27.2,30.5,96,96
FLMM,2/3/11,26.23750003,0.71307342,24.9,28.5,96,96
FLMM,2/4/11,24.20312496,1.22375211,22.1,26.3,96,96
FLMM,2/5/11,25.36979157,1.389291415,23.3,27.5,96,96
FLMM,2/6/11,27.16354167,1.042074738,25.4,29.3,96,96
FLMM,2/7/11,26.95833341,2.362499452,22.4,30.9,96,96
FLMM,2/8/11,23.72604165,1.837288894,20.6,26.5,96,96
FLMM,2/9/11,24.90729169,1.304667308,22.8,27.7,96,96
FLMM,2/10/11,25.36666671,1.663899424,23,28.1,96,96
FLMM,2/11/11,22.53333338,1.0739662,20.1,24.6,96,96
FLMM,2/12/11,22.63333338,1.163358576,21,25.2,96,96
FLMM,2/13/11,22.38645826,1.405075034,19.9,25.6,96,96
FLMM,2/14/11,21.97499998,1.389888257,19.7,24.9,96,96
FLMM,2/15/11,22.46354167,1.088225929,21,24.8,96,96
FLMM,2/16/11,22.73749987,2.107892444,19.1,25.2,96,96
FLMM,2/17/11,25.55729169,1.15382609,23.8,28,96,96
FLMM,2/18/11,25.55312498,0.799862135,24.5,27.3,96,96
FLMM,2/19/11,25.47395831,0.552362372,24.4,26.9,96,96
FLMM,2/20/11,27.53958333,1.98258093,24.4,30.5,96,96
FLMM,2/21/11,27.71145827,1.299057953,25.6,29.9,96,96
FLMM,2/22/11,23.97916667,1.124924863,22,25.8,96,96
FLMM,2/23/11,23.8479166,1.250093083,21.7,25.4,96,96
FLMM,2/24/11,27.11562502,1.878595645,24.5,30.6,96,96
FLMM,2/25/11,29.71770831,1.863273645,26.7,33.6,96,96
FLMM,2/26/11,29.46979161,1.606049069,26.8,32.5,96,96
FLMM,2/27/11,27.96354165,1.558549987,25.1,31.3,96,96
FLMM,2/28/11,25.88124994,2.026057201,21.9,29.6,96,96
FLMM,3/1/11,22.10520828,0.788385301,19.6,23,96,96
FLMM,3/2/11,24.11354172,1.181401462,22.4,27.1,96,96
FLMM,3/3/11,19.46145833,1.541248349,17.3,23.2,96,96
FLMM,3/4/11,16.56354169,1.165569162,14.6,18.5,96,96
FLMM,3/5/11,16.8927083,1.623786612,14.1,19.1,96,96
FLMM,3/6/11,20.41145829,1.627259273,17.6,22.7,96,96
FLMM,3/7/11,22.15937493,1.13049385,20.2,23.5,96,96
FLMM,3/8/11,23.32708327,0.68694272,21.5,24.7,96,96
FLMM,3/9/11,22.92916667,1.921617606,19.3,26.6,96,96
FLMM,3/10/11,17.72291674,2.019925968,12.3,20.1,96,96
FLMM,3/11/11,13.078125,0.951365048,11.2,14.9,96,96
FLMM,3/12/11,18.79687503,2.859792159,13.5,22.7,96,96
FLMM,3/13/11,14.99270828,1.25280699,11.2,17,96,96
FLMM,3/14/11,13.490625,1.517066316,11.3,17.5,96,96
FLMM,3/15/11,12.98229163,1.32657017,10.5,16.6,96,96
FLMM,3/16/11,16.49374998,1.7398011,13,19.7,96,96
FLMM,3/17/11,19.32499999,1.855347891,13.6,22.2,96,96
FLMM,3/18/11,19.93437508,1.669593711,14.7,22.2,96,96
FLMM,3/19/11,18.22291675,1.60213542,12.7,20.7,96,96
FLMM,3/20/11,20.53229161,1.156172901,17.8,22.5,96,96
FLMM,3/21/11,21.23958319,0.772484599,20.1,23.4,96,96
FLMM,3/22/11,25.01250007,1.358036498,21.5,27.2,96,96
FLMM,3/23/11,24.34895835,0.839924105,22,25.8,96,96
FLMM,3/24/11,24.26041669,1.758915895,21.2,27.1,96,96
FLMM,3/25/11,24.54791665,1.066324642,19.8,27,96,96
FLMM,3/26/11,25.98437498,2.3094464,19.6,29.3,96,96
FLMM,3/27/11,19.34270836,4.842134052,10.7,29.6,96,96
FLMM,3/28/11,12.38958335,3.091226291,7.8,19.2,96,96
FLMM,3/29/11,15.67604164,1.348507549,10.2,17.8,96,96
FLMM,3/30/11,16.18229159,1.598288162,12.8,19.3,96,96
FLMM,3/31/11,13.65833331,1.417905588,11.7,17.6,96,96
FLMM,4/1/11,14.87604171,1.019571139,11.9,18,96,96
FLMM,4/2/11,13.18125003,1.309022314,10.6,16.9,96,96
FLMM,4/3/11,13.82395834,1.66870546,10.3,16.6,96,96
FLMM,4/4/11,12.28437495,1.962347058,8.6,15.6,96,96
FLMM,4/5/11,10.59999997,2.085589698,7.1,14.6,96,96
FLMM,4/6/11,3.958333345,1.897902826,0.4,7.4,96,96
FLMM,4/7/11,7.337499969,4.673536878,0.4,13.2,96,96
FLMM,4/8/11,12.07500006,1.265576628,9.6,13.9,96,96
FLMM,4/9/11,7.11666665,2.404192221,3.9,10.7,96,96
FLMM,4/10/11,11.41874997,3.691250318,5.5,17.7,96,96
FLMM,4/11/11,18.97916657,1.670922526,15.8,21.9,96,96
FLMM,4/12/11,18.609375,0.63925594,16.8,20,96,96
FLMM,4/13/11,17.19479163,0.800969067,15.9,19.4,96,96
FLMM,4/14/11,21.10000004,2.336484041,18.1,25.4,96,96
FLMM,4/15/11,26.10520832,1.117550811,24.7,28.3,96,96
FLMM,4/16/11,29.28124994,1.325007478,26.1,31.1,96,96
FLMM,4/17/11,24.8374999,1.389983013,16.8,26.7,96,96
FLMM,4/18/11,22.64479162,2.946143493,12.6,26.1,96,96
FLMM,4/19/11,23.43437509,1.420291138,18.3,25.6,96,96
FLMM,4/20/11,24.35937502,1.166693754,18.2,26.8,96,96
FLMM,4/21/11,23.77187492,2.9232175,17,27.3,96,96
FLMM,4/22/11,13.92083334,5.37344185,7.2,24.2,96,96
FLMM,4/23/11,8.801041685,3.074941001,3.5,13.8,96,96
FLMM,4/24/11,12.14062495,1.73007932,8.8,16.1,96,96
FLMM,4/25/11,10.32083333,3.824269207,2.5,16.8,96,96
FLMM,4/26/11,14.91770841,3.258995504,8,19.9,96,96
FLMM,4/27/11,20.84895835,1.576070719,17.5,23.2,96,96
FLMM,4/28/11,15.43541671,1.245706663,12.6,17.5,96,96
FLMM,4/29/11,18.40833328,0.639352619,17.6,20,96,96
FLMM,4/30/11,20.12708334,0.743034925,18.6,21.2,96,96
FLMM,5/1/11,18.55208333,0.509277923,17.3,19.9,96,96
FLMM,5/2/11,16.91562508,1.121589885,15,18.9,96,96
FLMM,5/3/11,14.43124997,1.62119599,11,17,96,96
FLMM,5/4/11,16.58020835,2.23647373,13.1,19.3,96,96
FLMM,5/5/11,9.128125007,2.023738218,6.5,13.6,96,96
FLMM,5/6/11,7.771874964,1.907806826,5.6,12.6,96,96
FLMM,5/7/11,10.90104164,1.502593907,8.6,14.9,96,96
FLMM,5/8/11,6.936458347,1.346505802,3.8,9.7,96,96
FLMM,5/9/11,12.02395837,2.168664117,7.4,16.1,96,96
FLMM,5/10/11,16.90520836,3.821913868,10.3,24.2,96,96
FLMM,5/11/11,18.17916671,2.407703302,11.2,22.3,96,96
FLMM,5/12/11,22.46562504,1.409130179,15.6,24.1,96,96
FLMM,5/13/11,19.31666668,1.314107054,16.9,22.5,96,96
FLMM,5/14/11,15.25729162,1.728384982,11.6,18.3,96,96
FLMM,5/15/11,13.22812503,0.761121505,11.5,14.9,96,96
FLMM,5/16/11,14.59687503,1.202580813,12.7,17.1,96,96
FLMM,5/17/11,15.77187505,0.819461055,14.7,17.9,96,96
FLMM,5/18/11,15.95833339,0.65993098,14.7,17.2,96,96
FLMM,5/19/11,18.4614584,1.220471853,16.6,20.4,96,96
FLMM,5/20/11,19.30104162,0.468928133,18.2,20.3,96,96
FLMM,5/21/11,19.19479142,0.244678069,18.7,19.7,96,96
FLMM,5/22/11,20.63854163,2.742276017,15.4,24.1,96,96
FLMM,5/23/11,12.36979173,2.322844029,8.4,16.5,96,96
FLMM,5/24/11,11.81249999,1.093256859,9.2,14.6,96,96
FLMM,5/25/11,10.77395831,3.232833032,4.8,14.2,96,96
FLMM,5/26/11,8.974999994,2.866136197,4.6,14.4,96,96
FLMM,5/27/11,14.25208342,4.400430184,5.9,19.2,96,96
FLMM,5/28/11,8.596874972,0.824423631,7,10.8,96,96
FLMM,5/29/11,16.11666667,2.30288913,10.8,19.7,96,96
FLMM,5/30/11,15.61874992,2.063074501,13.3,19.6,96,96
FLMM,5/31/11,14.95729161,0.777410695,13.7,16.1,96,96
FLMM,6/1/11,15.25520832,2.002149877,11.8,18.3,96,96
FLMM,6/2/11,12.54791665,0.699921684,11.8,14.4,96,96
FLMM,6/3/11,14.03333335,1.112197068,12.3,16.9,96,96
FLMM,6/4/11,11.72916671,1.954369771,8.1,16.4,96,96
FLMM,6/5/11,12.26874998,0.772052983,10,13.4,96,96
FLMM,6/6/11,16.84583337,2.654129583,13.4,21.8,96,96
FLMM,6/7/11,16.12812494,1.419762951,13.9,19.5,96,96
FLMM,6/8/11,12.87291665,1.261617966,10.9,16,96,96
FLMM,6/9/11,18.23020828,0.92350813,16.2,20.1,96,96
FLMM,6/10/11,18.34583334,1.43541066,16.3,20.4,96,96
FLMM,6/11/11,16.23958335,0.920123467,13.9,17.6,96,96
FLMM,6/12/11,13.42916663,0.702913715,12.5,14.9,96,96
FLMM,6/13/11,16.84062499,1.586162349,14.1,19.6,96,96
FLMM,6/14/11,18.02812495,1.079932116,16.3,19.7,96,96
FLMM,6/15/11,17.89791673,1.191193932,16.2,20.8,96,96
FLMM,6/16/11,20.1385416,0.935990312,18.7,21.9,96,96
FLMM,6/17/11,23.72083332,0.655007615,22,25.2,96,96
FLMM,6/18/11,22.64791658,1.148910634,20.3,25.1,96,96
FLMM,6/19/11,15.01250002,2.769809003,10.6,20.3,96,96
FLMM,6/20/11,14.94166664,1.272847249,10.8,17.9,96,96
FLMM,6/21/11,13.56979166,1.966515511,9.6,17.1,96,96
FLMM,6/22/11,13.334375,1.727902821,9.4,16.6,96,96
FLMM,6/23/11,7.134374996,3.185652968,2.5,14.1,96,96
FLMM,6/24/11,12.05520834,2.586111473,6.4,16,96,96
FLMM,6/25/11,10.23333334,0.844507569,8.7,11.9,96,96
FLMM,6/26/11,7.891666705,0.877276527,5.8,9.6,96,96
FLMM,6/27/11,10.93333333,1.802726998,7.2,13.8,96,96
FLMM,6/28/11,13.80312501,0.776422757,12,15.6,96,96
FLMM,6/29/11,16.17499997,1.279967093,13.3,18,96,96
FLMM,6/30/11,14.59583333,0.870561416,12.9,16.6,96,96
FLMM,7/1/11,15.03749999,1.040166972,13,16.9,96,96
FLMM,7/2/11,13.37083335,1.436363621,11.1,16.7,96,96
FLMM,7/3/11,11.07083328,3.153641634,7.2,16.9,96,96
FLMM,7/4/11,15.28124997,1.56429312,11,17.6,96,96
FLMM,7/5/11,16.29270841,1.846661044,12.7,21.6,96,96
FLMM,7/6/11,13.89375005,3.41787293,6.8,18.6,96,96
FLMM,7/7/11,8.579166705,1.915472554,5.5,12,96,96
FLMM,7/8/11,15.44270832,2.133183667,10.5,18.2,96,96
FLMM,7/9/11,15.25833335,0.927891425,13.2,17.7,96,96
FLMM,7/10/11,14.3510417,0.967361541,12.7,17,96,96
FLMM,7/11/11,17.23020836,1.268577347,15.2,19.7,96,96
FLMM,7/12/11,18.93333331,2.05813752,13.2,21.3,96,96
FLMM,7/13/11,11.14999996,0.909019156,9.1,13,96,96
FLMM,7/14/11,16.5135417,2.147587147,12.3,19.8,96,96
FLMM,7/15/11,22.91041674,2.033895824,19.4,25.9,96,96
FLMM,7/16/11,21.31458331,3.383053127,15.8,25.8,96,96
FLMM,7/17/11,15.37812505,1.651487584,12.1,18.8,96,96
FLMM,7/18/11,21.99895839,1.019028948,19,23.2,96,96
FLMM,7/19/11,20.30000003,1.212305359,18.6,23.1,96,96
FLMM,7/20/11,20.00937504,1.126903271,18.3,21.9,96,96
FLMM,7/21/11,17.28958337,3.22302501,12.6,22.3,96,96
FLMM,7/22/11,15.73854166,3.957228313,8.6,23.3,96,96
FLMM,7/23/11,18.82500003,2.398815498,13.2,24.6,96,96
FLMM,7/24/11,11.92812497,0.719166604,10.6,13.9,96,96
FLMM,7/25/11,11.51145829,0.495425316,10.3,12.9,96,96
FLMM,7/26/11,14.71666668,1.66573307,12,18.3,96,96
FLMM,7/27/11,18.58437494,0.607380536,17.1,20.2,96,96
FLMM,7/28/11,16.62916667,2.489342239,12.2,21.6,96,96
FLMM,7/29/11,13.35520836,0.880414963,11.7,15.3,96,96
FLMM,7/30/11,14.75937503,1.517586618,11.5,17.1,96,96
FLMM,7/31/11,14.53645824,2.352652276,11.3,18,96,96
FLMM,8/1/11,20.48333339,1.185053117,17.5,23,96,96
FLMM,8/2/11,23.38020829,1.820504371,20.9,27.1,96,96
FLMM,8/3/11,27.66666671,0.885279207,22.5,28.3,96,96
FLMM,8/4/11,25.9124999,0.612200588,24.7,26.9,96,96
FLMM,8/5/11,22.91354162,3.279076248,13.8,28.6,96,96
FLMM,8/6/11,21.1333333,3.023823543,13.2,27.6,96,96
FLMM,8/7/11,16.44270829,1.620899351,14.2,20.8,96,96
FLMM,8/8/11,12.45625001,1.987318304,9.4,18.1,96,96
FLMM,8/9/11,8.489583393,1.91275387,5.1,12.6,96,96
FLMM,8/10/11,12.23854168,2.191340361,9.8,17.3,96,96
FLMM,8/11/11,19.82708335,1.074437743,17.2,21.8,96,96
FLMM,8/12/11,20.32916667,0.951222634,17.8,22,96,96
FLMM,8/13/11,16.31145834,0.945111424,13.9,18.3,96,96
FLMM,8/14/11,14.10729164,1.303618058,11.5,17,96,96
FLMM,8/15/11,18.98020834,1.420794456,14.8,21.4,96,96
FLMM,8/16/11,17.85520834,1.614269836,15.3,21.3,96,96
FLMM,8/17/11,17.02708333,4.021769112,6.4,23.4,96,96
FLMM,8/18/11,18.84479167,3.105067835,6.4,22.8,96,96
FLMM,8/19/11,6.202083343,4.872219405,0.5,16.1,96,96
FLMM,8/20/11,2.093750006,1.373571029,0.4,5.5,96,96
FLMM,8/21/11,7.773958318,2.364751891,3.6,11.2,96,96
FLMM,8/22/11,7.013541654,1.810415446,4.7,11.2,96,96
FLMM,8/23/11,17.971875,2.492037923,11.6,21.5,96,96
FLMM,8/24/11,16.30416662,2.748087089,13.3,21.7,96,96
FLMM,8/25/11,15.36145834,0.801888555,14.2,17.9,96,96
FLMM,8/26/11,15.87604159,0.961111596,13.7,18,96,96
FLMM,8/27/11,18.72812498,1.589617891,16.2,21.4,96,96
FLMM,8/28/11,21.75625012,0.635247569,20.7,23.1,96,96
FLMM,8/29/11,20.31666662,0.388699973,19.4,21,96,96
FLMM,8/30/11,20.64270824,0.922895432,18.9,22.7,96,96
FLMM,8/31/11,19.15312509,1.095056253,17.2,21.7,96,96
FLMM,9/1/11,21.46562507,1.491084178,19.1,24.4,96,96
FLMM,9/2/11,20.24687495,0.632614117,19.2,22.5,96,96
FLMM,9/3/11,21.27187502,2.025713757,18.2,25.3,96,96
FLMM,9/4/11,21.0666667,1.305023994,18.2,22.8,96,96
FLMM,9/5/11,18.88333331,1.693061165,16,22.5,96,96
FLMM,9/6/11,20.97187487,1.854536436,16.9,23.9,96,96
FLMM,9/7/11,17.12291658,4.35342519,8.5,23,96,96
FLMM,9/8/11,10.71041666,1.703586263,8,13.3,96,96
FLMM,9/9/11,12.89374999,1.656172675,10,15.5,96,96
FLMM,9/10/11,17.93958335,1.229589424,15.7,19.5,96,96
FLMM,9/11/11,20.62187507,1.189002486,19.1,22.9,96,96
FLMM,9/12/11,23.5489583,0.602974148,22.5,25.1,96,96
FLMM,9/13/11,23.23541667,0.886267077,20.9,24.9,96,96
FLMM,9/14/11,19.93541666,1.350475843,17.4,23,96,96
FLMM,9/15/11,21.725,0.855816005,19.3,23.3,96,96
FLMM,9/16/11,22.03541666,1.110427007,19,23.8,96,96
FLMM,9/17/11,19.06041667,1.100284983,12.7,20.9,96,96
FLMM,9/18/11,20.89374995,2.264964805,17.5,25.8,96,96
FLMM,9/19/11,16.10937499,2.692292143,9.3,20.3,96,96
FLMM,9/20/11,13.65833336,2.879132435,5.9,19.9,96,96
FLMM,9/21/11,12.1583334,0.619790551,10.5,14,96,96
FLMM,9/22/11,13.48541664,1.426292908,8.5,17.5,96,96
FLMM,9/23/11,17.38020835,2.32508611,7.2,23.2,96,96
FLMM,9/24/11,9.026041638,4.111044023,1.7,15.9,96,96
FLMM,9/25/11,3.503124992,1.820899327,0.4,7.6,96,96
FLMM,9/26/11,10.98437502,3.597845246,3.4,15.1,96,96
FLMM,9/27/11,20.9760417,3.225808663,14,25.4,96,96
FLMM,9/28/11,16.31979162,4.444100033,7.5,24.7,96,96
FLMM,9/29/11,11.76875003,4.847013463,3.5,20.5,96,96
FLMM,9/30/11,7.363541719,4.115647222,1.6,15.6,96,96
FLMM,10/1/11,5.416666672,3.933624733,0.4,12.1,96,96
FLMM,10/2/11,16.62187509,3.011039491,10,20.5,96,96
FLMM,10/3/11,18.45520833,4.289028143,9.3,22.7,96,96
FLMM,10/4/11,18.22291669,4.532861971,8.8,24.4,96,96
FLMM,10/5/11,22.5666667,1.664784939,19.5,25.4,96,96
FLMM,10/6/11,19.78333334,1.399598956,17.3,22,96,96
FLMM,10/7/11,23.69062503,1.210313364,22,25.7,96,96
FLMM,10/8/11,23.00312503,1.096161156,21,24.9,96,96
FLMM,10/9/11,22.29999995,2.072222252,15.6,25.4,96,96
FLMM,10/10/11,25.46562491,2.502875396,20.7,29.9,96,96
FLMM,10/11/11,17.34062497,1.906364739,12.3,20.5,96,96
FLMM,10/12/11,11.79479167,1.511177244,9.3,17.3,96,96
FLMM,10/13/11,13.61979176,2.916473023,8.5,19.1,96,96
FLMM,10/14/11,18.00104178,2.728774375,13.7,23.6,96,96
FLMM,10/15/11,10.63750005,4.491869887,2.8,16.8,96,96
FLMM,10/16/11,16.03125009,3.067634655,10.4,19.5,96,96
FLMM,10/17/11,18.66666669,1.197687835,15.4,20.6,96,96
FLMM,10/18/11,17.89479177,0.911605833,15.8,20.3,96,96
FLMM,10/19/11,16.91145832,2.28675225,11.4,20.5,96,96
FLMM,10/20/11,11.84062504,1.371175298,9.5,14.1,96,96
FLMM,10/21/11,14.23125,1.275626765,11.1,15.8,96,96
FLMM,10/22/11,13.14999998,1.772598386,10.6,15.9,96,96
FLMM,10/23/11,15.37812501,1.602117218,12.8,18.2,96,96
FLMM,10/24/11,16.84166669,1.825934021,14,19.4,96,96
FLMM,10/25/11,17.86145828,1.216065206,14.7,20,96,96
FLMM,10/26/11,18.64166674,2.336333904,13.9,21.3,96,96
FLMM,10/27/11,23.58333333,1.996452918,20.2,26.5,96,96
FLMM,10/28/11,22.82187504,1.419132514,19.2,25.8,96,96
FLMM,10/29/11,18.946875,1.080735822,16.6,21.3,96,96
FLMM,10/30/11,17.73020839,1.929064172,14.7,21,96,96
FLMM,10/31/11,16.3739583,1.393990364,14.4,18.4,96,96
FLMM,11/1/11,18.71770836,2.377260459,14.8,21.7,96,96
FLMM,11/2/11,26.04479166,2.162253698,21.5,28.7,96,96
FLMM,11/3/11,25.82083335,0.519497013,24.2,26.9,96,96
FLMM,11/4/11,24.79583329,1.054605633,23.2,27.5,96,96
FLMM,11/5/11,24.74375006,1.261812567,22.5,26.5,96,96
FLMM,11/6/11,25.39687498,0.371186771,24.7,26.2,96,96
FLMM,11/7/11,26.30104174,1.072183687,24.2,27.7,96,96
FLMM,11/8/11,27.61562504,1.280651847,25.5,29.3,96,96
FLMM,11/9/11,27.38020829,1.248461719,25,29.4,96,96
FLMM,11/10/11,28.09479169,1.143804368,26.1,30,96,96
FLMM,11/11/11,26.11979161,1.05985312,23.3,27.6,96,96
FLMM,11/12/11,24.9552083,1.020306381,22.7,26.5,96,96
FLMM,11/13/11,27.39375005,1.562508955,24.2,29.5,96,96
FLMM,11/14/11,29.49270829,1.369690282,27,31.2,96,96
FLMM,11/15/11,31.42395834,1.146963507,28.9,33,96,96
FLMM,11/16/11,32.7729165,1.03175682,31.1,34.6,96,96
FLMM,11/17/11,29.11562496,0.80148913,27.9,31.3,96,96
FLMM,11/18/11,27.44687502,1.481887371,24.7,29.8,96,96
FLMM,11/19/11,22.09687501,1.458871422,19.2,25,96,96
FLMM,11/20/11,23.31666654,1.692874647,20.6,25.8,96,96
FLMM,11/21/11,26.81458332,1.56776607,24.3,29,96,96
FLMM,11/22/11,27.64479156,0.608340216,26.7,29.1,96,96
FLMM,11/23/11,27.86562504,1.07545119,26.1,29.6,96,96
FLMM,11/24/11,27.60937502,0.862685918,26.2,29.3,96,96
FLMM,11/25/11,25.64583329,0.332745132,24.9,26.3,96,96
FLMM,11/26/11,28.68645839,2.131350861,25.4,32.1,96,96
FLMM,11/27/11,27.56666666,0.885160362,25.8,29.2,96,96
FLMM,11/28/11,28.74895843,1.140082648,27,30.2,96,96
FLMM,11/29/11,30.07291669,1.01695918,27.7,31.7,96,96
FLMM,11/30/11,30.51874999,0.641759463,29.4,32,96,96
FLMM,12/1/11,30.51354166,1.155546713,28.6,32.7,96,96
FLMM,12/2/11,30.45104154,0.951009877,28.6,32.3,96,96
FLMM,12/3/11,30.34479173,1.645464047,26.9,32.5,96,96
FLMM,12/4/11,28.08437508,1.238787849,26,30,96,96
FLMM,12/5/11,28.09791672,0.643179449,27,29.9,96,96
FLMM,12/6/11,30.09583322,1.617660039,27.1,32.3,96,96
FLMM,12/7/11,30.34583328,1.514207589,28.1,32.9,96,96
FLMM,12/8/11,28.88750011,1.168106884,27.2,31.1,96,96
FLMM,12/9/11,29.56562493,1.136923773,27.7,31.1,96,96
FLMM,12/10/11,31.62291674,1.178266244,29.9,34.4,96,96
FLMM,12/11/11,28.03333332,0.73765871,26.9,29.8,96,96
FLMM,12/12/11,27.50208328,1.089372489,25.9,29.1,96,96
FLMM,12/13/11,27.63229165,0.733914607,26.6,28.9,96,96
FLMM,12/14/11,31.93437511,9.525995796,23.7,54.7,96,62
FLMM,12/15/11,40.17291665,5.935149229,32.2,52.9,96,0
FLMM,12/16/11,70.87187497,23.77400035,42.1,100,96,1
FLMM,12/17/11,77.64166669,14.03766123,56.5,100,96,5
FLMM,12/18/11,64.7406251,5.818547256,52.7,74.4,96,0
FLMM,12/19/11,46.18750008,10.31972318,28.5,65.4,96,0
FLMM,12/20/11,47.44166668,15.53348639,25.8,70.3,96,0
FLMM,12/21/11,46.33958328,10.41743972,24.1,64.8,96,0
FLMM,12/22/11,73.02083341,4.653847208,63.9,86.7,96,0
FLMM,12/23/11,55.06770853,12.69434627,36.5,77.8,96,0
FLMM,12/24/11,46.05312494,12.51627961,31.1,67.8,96,0
FLMM,12/25/11,42.15312483,11.0698636,22.2,63.5,96,0
FLMM,12/26/11,42.89270826,8.624008758,24.1,56.7,96,0
FLMM,12/27/11,29.359375,9.95965099,17.8,58.3,96,0
FLMM,12/28/11,28.73645836,7.188603817,14.3,45.5,96,0
FLMM,12/29/11,29.44895829,10.84274183,14.2,59.3,96,0
FLMM,12/30/11,32.52604155,4.316510244,25.6,44,96,0
FLMM,12/31/11,46.01041663,6.604615175,33.4,62,96,0
FLMM,1/1/12,31.33541662,6.286308856,21.7,49.7,96,0
FLMM,1/2/12,66.17499991,16.46154028,46.4,99.2,96,0
FLMM,1/3/12,60.37812523,12.5274623,43.7,85.8,96,0
FLMM,1/4/12,66.57291667,7.625075923,54.8,83.4,96,0
FLMM,1/5/12,65.96458304,8.233282303,52.8,81,96,0
FLMM,1/6/12,54.5541666,5.304375929,45.9,68,96,0
FLMM,1/7/12,52.10520844,10.95367644,36.5,73.9,96,0
FLMM,1/8/12,67.68958334,5.275493787,58.9,85.5,96,0
FLMM,1/9/12,53.57395846,21.74902446,25.9,91.3,96,0
FLMM,1/10/12,39.50416644,2.868923122,32.3,45.3,96,0
FLMM,1/11/12,24.07083318,13.3016888,11.9,60.6,96,0
FLMM,1/12/12,31.72187504,11.34919618,11.6,54.5,96,0
FLMM,1/13/12,34.68854173,7.021423877,25.2,61.7,96,0
FLMM,1/14/12,28.34583312,6.155064806,16,39.1,96,0
FLMM,1/15/12,29.20833339,6.682588125,19.4,41.7,96,0
FLMM,1/16/12,43.22083306,5.729864857,35.4,55.1,96,0
FLMM,1/17/12,42.43749986,8.143518569,26.7,57.1,96,0
FLMM,1/18/12,24.04166661,3.352098047,16.4,32.9,96,0
FLMM,1/19/12,43.26145824,8.304702229,30.4,62,96,0
FLMM,1/20/12,54.04166675,4.359011693,48,62.5,96,0
FLMM,1/21/12,43.4239584,13.08423535,24.3,65.8,96,0
FLMM,1/22/12,57.48333355,15.72077858,33.8,82.2,96,0
FLMM,1/23/12,61.10104167,10.29314028,48.5,77.3,96,0
FLMM,1/24/12,83.16874985,12.64189666,52.6,98.8,96,0
FLMM,1/25/12,65.17708333,11.53844375,40.6,90.5,96,0
FLMM,1/26/12,71.13718756,11.61075919,45.5,91.05,96,0
FLMM,1/27/12,85.08489593,5.015164606,77.71,94.05,96,0
FLMM,1/28/12,83.73979155,2.449678565,79.67,89.29,96,0
FLMM,1/29/12,72.0967706,10.97800808,48.68,89.71,96,0
FLMM,1/30/12,55.06437482,15.7307992,30.98,85.99,96,0
FLMM,1/31/12,71.02729154,13.93913669,47.27,91.94,96,0
FLMM,2/1/12,57.41156252,6.562990878,45.22,77.42,96,0
FLMM,2/2/12,79.75437522,5.700182502,69.33,89.15,96,0
FLMM,2/3/12,75.00718713,9.691354743,56.18,95.23,96,0
FLMM,2/4/12,57.21812495,9.720610324,44.1,79.04,96,0
FLMM,2/5/12,69.42281274,13.33317706,49.77,89.08,96,0
FLMM,2/6/12,77.78822907,8.279504937,60.03,88.62,96,0
FLMM,2/7/12,69.85302122,14.61350532,40.02,93.53,96,0
FLMM,2/8/12,29.51531245,7.728341501,19.72,45.77,96,0
FLMM,2/9/12,37.11145824,7.880034807,19.52,54.55,96,0
FLMM,2/10/12,64.40927112,5.184025737,49.72,76.4,96,0
FLMM,2/11/12,63.02333331,4.402682661,55.79,77.26,96,0
FLMM,2/12/12,69.74739552,18.86724989,39.23,98.56,96,0
FLMM,2/13/12,91.31541665,9.53013336,71.52,100,96,6
FLMM,2/14/12,81.10843805,18.73989059,42.74,100,96,1
FLMM,2/15/12,49.94677077,11.79127245,27.65,69.83,96,0
FLMM,2/16/12,28.4260417,2.959542474,21.16,36.19,96,0
FLMM,2/17/12,35.36541673,4.075612044,29.98,48.23,96,0
FLMM,2/18/12,58.89010413,18.06639283,36.67,91.82,96,0
FLMM,2/19/12,96.76729155,1.927474532,91.26,99.23,96,0
FLMM,2/20/12,89.22395841,4.449530179,79.25,97.07,96,0
FLMM,2/21/12,61.33166667,15.84274501,27.94,89.84,96,0
FLMM,2/22/12,29.1072916,6.126701,20.64,42.8,96,0
FLMM,2/23/12,43.80958338,21.72696003,15.63,81.43,96,0
FLMM,2/24/12,23.0039584,3.924412299,18.16,44.31,96,0
FLMM,2/25/12,28.27614592,10.35033658,19.34,70.91,96,0
FLMM,2/26/12,97.96729175,5.555653645,73.97,100,96,47
FLMM,2/27/12,58.3412499,27.8794034,22.69,99.82,96,0
FLMM,2/28/12,26.71635426,10.34197964,15.69,55.86,96,0
FLMM,2/29/12,37.35333337,9.750754699,18.2,58.82,96,0
FLMM,3/1/12,41.03500011,13.35391383,25.26,84.16,96,0
FLMM,3/2/12,65.62239587,5.957649492,44.2,74.89,96,0
FLMM,3/3/12,45.32583328,7.003596138,34.71,64.59,96,0
FLMM,3/4/12,65.131875,7.01967397,54.4,78.91,96,0
FLMM,3/5/12,68.44739568,7.302377714,54.32,80.43,96,0
FLMM,3/6/12,43.58697899,14.00947942,27.96,71.47,96,0
FLMM,3/7/12,31.73906241,3.363056086,27.31,41.82,96,0
FLMM,3/8/12,46.72281261,7.894827309,33.92,61.3,96,0
FLMM,3/9/12,59.36916697,11.67127186,41.53,80.7,96,0
FLMM,3/10/12,69.67531236,9.507073206,51.37,84.56,96,0
FLMM,3/11/12,80.70520862,5.253281896,73.07,91.82,96,0
FLMM,3/12/12,69.68687503,19.78013437,36.42,92.58,96,0
FLMM,3/13/12,72.33770835,12.10117568,38.38,90.65,96,0
FLMM,3/14/12,77.68072915,6.77572497,65.52,91.56,96,0
FLMM,3/15/12,62.53281252,18.29045841,38.5,86.97,96,0
FLMM,3/16/12,28.21552077,11.14632281,11.02,52.1,96,0
FLMM,3/17/12,48.38656255,13.75458324,27.75,76.24,96,0
FLMM,3/18/12,48.61708323,27.45326013,17.51,81.3,96,0
FLMM,3/19/12,23.43343744,6.125759462,13.22,36.47,96,0
FLMM,3/20/12,37.3193751,12.32744662,17.71,62.9,96,0
FLMM,3/21/12,55.78312496,6.248970343,44.37,67.46,96,0
FLMM,3/22/12,45.52885405,8.584836572,30.85,64.84,96,0
FLMM,3/23/12,75.27468749,14.72228167,38.74,92.62,96,0
FLMM,3/24/12,78.57322951,10.8443457,62.16,92.06,96,0
FLMM,3/25/12,46.62437507,13.37334925,28.57,75.72,96,0
FLMM,3/26/12,56.11541661,10.73043232,46.48,88.74,96,0
FLMM,3/27/12,82.27249996,10.50705422,66.44,97.7,96,0
FLMM,3/28/12,48.67822895,11.3366661,31.14,70.2,96,0
FLMM,3/29/12,45.68395833,11.90398671,28.56,72.56,96,0
FLMM,3/30/12,80.68447908,2.257218185,73.71,85.47,96,0
FLMM,3/31/12,80.26437505,3.144927794,74.86,86.04,96,0
FLMM,4/1/12,79.13593745,5.263080721,66.25,88.43,96,0